Home   Weather   Fairfield   Past weeks
Flag for USA

Past Weather in Fairfield, New York, USA — Yesterday and Last 2 Weeks

Now
28 °F

Light snow. Mostly cloudy.


Feels Like: 17 °F
Forecast: 33 / 26 °F
Wind: 13 mph from Northwest

Location: Binghamton Regional Airport

Current Time: Dec 5, 2019 at 3:16:31 pm

Latest Report: Dec 5, 2019 at 2:35 pm


Visibility: 5 mi

Pressure: 29.79 "Hg

Humidity: 81%

Dew Point: 23 °F

Location of FairfieldLocation

Past Weather in Fairfield — Graph

°F

Fairfield Temperature Yesterday

Maximum temperature yesterday: 31 °F (at 12:04 pm)
Minimum temperature yesterday: 26 °F (at 12:53 am)
Average temperature yesterday: 29 °F

High & Low Weather Summary for the Past Weeks

 TemperatureHumidityPressure
High56 °F (Nov 26, 1:53 pm)100% (Nov 22, 9:07 am)30.33 "Hg (Nov 22, 9:07 am)
Low17 °F (Dec 1, 1:53 am)41% (Nov 30, 1:53 pm)29.38 "Hg (Dec 4, 1:08 pm)
Average32 °F83%29.79 "Hg
* Reported Nov 20 2:53 pm — Dec 5 2:08 pm, Fairfield. Weather by CustomWeather, © 2019

Note: Actual official high and low records may vary slightly from our data, if they occured in-between our weather recording intervals... More about our weather records

Fairfield Weather History for the Previous 24 Hours

Scroll right to see more
 ConditionsComfort  
Time TempWeatherWind HumidityBarometerVisibility
2:08 pm
Thu, Dec 5
28 °FLight snow. Ice fog.10 mph85%29.78 "Hg2 mi
1:21 pm28 °FCloudy.14 mph85%29.75 "Hg9 mi
12:53 pm28 °FLight snow. Cloudy.14 mph81%29.80 "Hg1 mi
11:53 am28 °FLight snow. Overcast.13 mph81%29.80 "Hg1 mi
11:27 am29 °FLight snow. Mostly cloudy.15 mph75%29.74 "Hg2 mi
11:08 am29 °FLight snow. Mostly cloudy.13 mph75%29.73 "Hg7 mi
10:41 am29 °FMore clouds than sun.10 mph75%29.73 "Hg10 mi
10:18 am29 °FMostly cloudy.12 mph72%29.74 "Hg10 mi
10:02 am29 °FMore clouds than sun.12 mph72%29.73 "Hg10 mi
9:29 am28 °FMostly cloudy.8 mph75%29.72 "Hg10 mi
8:53 am28 °FOvercast.10 mph75%29.75 "Hg10 mi
7:53 am28 °FOvercast.13 mph75%29.72 "Hg9 mi
6:53 am29 °FLight snow. Mostly cloudy.18 mph79%29.68 "Hg7 mi
6:42 am29 °FLight snow. Mostly cloudy.10 mph89%29.63 "Hg7 mi
6:30 am29 °FLight snow. Ice fog.13 mph93%29.62 "Hg2 mi
6:07 am29 °FLight snow. Ice fog.9 mph93%29.61 "Hg5 mi
5:53 am29 °FLight snow. Overcast.10 mph93%29.65 "Hg8 mi
5:40 am29 °FLight snow. Ice fog.10 mph93%29.59 "Hg5 mi
5:31 am30 °FLight snow. Overcast.10 mph89%29.58 "Hg8 mi
5:10 am30 °FLight snow. Ice fog.10 mph89%29.57 "Hg5 mi
4:53 am30 °FMostly cloudy.12 mph89%29.61 "Hg10 mi
4:31 am30 °FOvercast.13 mph92%29.55 "Hg10 mi
3:53 am30 °FLight snow. Ice fog.9 mph92%29.57 "Hg3 mi
3:25 am30 °FLight snow. Ice fog.9 mph92%29.52 "Hg2 mi
2:53 am30 °FLight snow. Ice fog.10 mph92%29.56 "Hg5 mi
2:38 am30 °FLight snow. Low clouds.10 mph92%29.51 "Hg7 mi
1:53 am30 °FOvercast.9 mph92%29.53 "Hg8 mi
1:18 am30 °FOvercast.8 mph92%29.47 "Hg10 mi
12:53 am30 °FOvercast.8 mph92%29.51 "Hg10 mi
12:04 am30 °FLight snow. Ice fog.8 mph96%29.46 "Hg6 mi
11:09 pm
Wed, Dec 4
30 °FMostly cloudy.6 mph96%29.46 "Hg7 mi
10:53 pm30 °FMostly cloudy.6 mph96%29.50 "Hg7 mi
10:28 pm30 °FLight snow. Ice fog.6 mph96%29.45 "Hg3 mi
9:53 pm30 °FLight snow. Ice fog.10 mph96%29.48 "Hg2 mi
9:17 pm30 °FLight snow. Ice fog.8 mph96%29.43 "Hg3 mi
8:53 pm30 °FLight snow. Ice fog.9 mph96%29.48 "Hg2 mi
8:36 pm30 °FLight snow. Ice fog.9 mph96%29.43 "Hg2 mi
8:06 pm30 °FLight snow. Ice fog.8 mph96%29.43 "Hg5 mi
6:53 pm30 °FMostly cloudy.7 mph96%29.48 "Hg2 mi
6:27 pm31 °FLight snow. Ice fog.9 mph92%29.43 "Hg2 mi
6:01 pm31 °FLight snow. Ice fog.8 mph92%29.42 "Hg4 mi
5:22 pm30 °FLight snow. Ice fog.8 mph96%29.42 "Hg1 mi
4:53 pm31 °FLight snow. Ice fog.8 mph92%29.46 "Hg1 mi
4:25 pm31 °FLight snow. Ice fog.9 mph92%29.40 "Hg1 mi
3:53 pm31 °FLight snow. Ice fog.7 mph92%29.45 "Hg1 mi
3:34 pm31 °FLight snow. Ice fog.9 mph92%29.39 "Hg1 mi
3:14 pm31 °FLight snow. Ice fog.8 mph92%29.39 "Hg1 mi
3:03 pm31 °FLight snow. Ice fog.8 mph92%29.39 "Hg2 mi
Weather by CustomWeather, © 2019

See weather overview

Advertising